Regional Weather Roundup
Issued by NWS

Home | Current Version | Previous Version | Text Only | Print | Product List | Glossary Off
Versions: 1 2 3 4 5 6 7 8 9 10 11 12 13 14 15 16 17 18 19 20 21 22 23 24 25 26 27 28 29 30 31 32 33 34 35 36 37 38 39 40 41 42 43 44 45 46 47 48 49 50

000
ASUS43 KLMK 281010
RWRKY
KENTUCKY REGIONAL WEATHER ROUNDUP
NATIONAL WEATHER SERVICE LOUISVILLE KY
600 AM EDT SAT MAR 28 2015

NOTE "FAIR" INDICATES FEW OR NO CLOUDS BELOW 12,000 FEET
WITH NO SIGNIFICANT WEATHER AND/OR OBSTRUCTIONS TO VISIBILITY.

KYZ001>023-026-027-061>063-070>075-281100-
WESTERN AND SOUTH CENTRAL KENTUCKY

CITY           SKY/WX    TMP DP  RH WIND       PRES   REMARKS
PADUCAH        CLEAR     26  21  81 CALM      30.19R
HENDERSON      CLEAR     28  18  64 NE10      30.21R WCI  19
OWENSBORO      CLEAR     27  16  63 NE5       30.21R WCI  22
HOPKINSVILLE   CLEAR     27  19  70 N2        30.18R
BOWLING GREEN  CLEAR     27  17  66 N3        30.18R
GLASGOW        CLEAR     26  11  52 N6        30.16R WCI  20
$$

KYZ024-025-028>034-038-045-046-053-281100-
NORTH CENTRAL KENTUCKY

CITY           SKY/WX    TMP DP  RH WIND       PRES   REMARKS
LOUISVILLE/SDF PTCLDY    25  13  60 N13       30.18R WCI  14
LOUISVILLE/LOU CLEAR     24  13  62 NW6       30.18R WCI  17
FORT KNOX      CLEAR     23   8  54 NW7       30.15R WCI  14
$$

KYZ035>037-039>044-047>052-055>060-089>105-281100-
NORTHEAST KENTUCKY

CITY           SKY/WX    TMP DP  RH WIND       PRES   REMARKS
LEXINGTON      MOCLDY    20  13  74 NW7       30.13R WCI  11
COVINGTON      CLEAR     20  13  74 NW7       30.15R WCI  11
FRANKFORT      CLEAR     22  11  62 N6        30.14R WCI  14
$$

KYZ054-064>069-076>088-106>120-281100-
SOUTHEAST KENTUCKY

CITY           SKY/WX    TMP DP  RH WIND       PRES   REMARKS
JACKSON        CLOUDY    25  16  68 NW5       30.07R WCI  19
LONDON         CLOUDY    28  10  46 NW9       30.09R WCI  19
SOMERSET       CLOUDY    27  16  63 N5        30.13S WCI  21
MIDDLESBORO    CLOUDY    29  16  57 NW8       30.08R WCI  21
MONTICELLO     PTSUNNY   28  16  61 N10       30.15R WCI  19
$$



USA.gov is the U.S. government's official web portal to all federal, state and local government web resources and services.